UAL1977 KIAD-KCMH

Flight info

Callsign UAL1977
Flight time 0h 53m
Altitude 30000
Route BUNZZ3 RAMAY Q72 HACKS SCRLT2
Aircraft B738/M-SDE2E3FGHIRWXY/LB1

Departure

Time 2026-05-08 22:56
Airport Washington Dulles International Airport (KIAD)

Arrival

Time 2026-05-08 23:49
Airport John Glenn Columbus International Airport (KCMH)
Time Latitude Longitude Altitude Speed Heading
2026-05-08 22:08 38.94578 -77.44579 299 ft 0 kts 180°
2026-05-08 22:41 38.94600 -77.44578 301 ft 4 kts 180°
2026-05-08 22:41 38.94626 -77.44578 299 ft 2 kts 180°
2026-05-08 22:41 38.94646 -77.44576 301 ft 4 kts 217°
2026-05-08 22:42 38.94655 -77.44553 302 ft 3 kts 270°
2026-05-08 22:42 38.94655 -77.44527 301 ft 0 kts 270°
2026-05-08 22:47 38.94655 -77.44532 302 ft 2 kts 270°
2026-05-08 22:47 38.94655 -77.44569 299 ft 7 kts 270°
2026-05-08 22:48 38.94655 -77.44661 299 ft 13 kts 271°
2026-05-08 22:48 38.94658 -77.44800 299 ft 18 kts 270°
2026-05-08 22:48 38.94659 -77.44972 299 ft 21 kts 270°
2026-05-08 22:48 38.94659 -77.45103 299 ft 14 kts 270°
2026-05-08 22:49 38.94661 -77.45230 299 ft 14 kts 271°
2026-05-08 22:49 38.94663 -77.45467 299 ft 12 kts 270°
2026-05-08 22:49 38.94664 -77.45541 299 ft 8 kts 270°
2026-05-08 22:50 38.94639 -77.45601 301 ft 8 kts 201°
2026-05-08 22:50 38.94579 -77.45611 301 ft 9 kts 182°
2026-05-08 22:50 38.94511 -77.45614 299 ft 10 kts 182°
2026-05-08 22:50 38.94435 -77.45612 301 ft 12 kts 178°
2026-05-08 22:51 38.94349 -77.45613 299 ft 13 kts 181°
2026-05-08 22:51 38.94257 -77.45614 300 ft 13 kts 180°
2026-05-08 22:51 38.94162 -77.45616 299 ft 14 kts 181°
2026-05-08 22:51 38.94061 -77.45617 299 ft 14 kts 181°
2026-05-08 22:52 38.93961 -77.45620 299 ft 15 kts 181°
2026-05-08 22:52 38.93855 -77.45620 302 ft 16 kts 180°
2026-05-08 22:52 38.93748 -77.45621 299 ft 14 kts 181°
2026-05-08 22:52 38.93665 -77.45557 301 ft 15 kts 132°
2026-05-08 22:53 38.93616 -77.45498 301 ft 14 kts 153°
2026-05-08 22:53 38.93524 -77.45526 299 ft 15 kts 201°
2026-05-08 22:53 38.93454 -77.45560 299 ft 0 kts 202°
2026-05-08 22:54 38.93451 -77.45562 299 ft 1 kts 202°
2026-05-08 22:54 38.93422 -77.45577 299 ft 9 kts 202°
2026-05-08 22:55 38.93374 -77.45633 299 ft 10 kts 276°
2026-05-08 22:55 38.93437 -77.45861 297 ft 58 kts 291°
2026-05-08 22:55 38.93661 -77.46621 302 ft 121 kts 290°
2026-05-08 22:55 38.94021 -77.47840 384 ft 163 kts 290°
2026-05-08 22:56 38.94468 -77.49191 1036 ft 164 kts 294°
2026-05-08 22:56 38.94702 -77.50615 1775 ft 162 kts 264°
2026-05-08 22:56 38.94348 -77.52010 2328 ft 175 kts 250°
2026-05-08 22:56 38.93862 -77.53558 2630 ft 196 kts 250°
2026-05-08 22:57 38.93371 -77.55248 2948 ft 210 kts 252°
2026-05-08 22:57 38.92893 -77.57111 2988 ft 225 kts 253°
2026-05-08 22:57 38.92396 -77.59011 2978 ft 229 kts 250°
2026-05-08 22:57 38.91882 -77.60948 2999 ft 229 kts 253°
2026-05-08 22:58 38.91410 -77.62921 3003 ft 233 kts 253°
2026-05-08 22:58 38.90989 -77.64942 3014 ft 235 kts 253°
2026-05-08 22:58 38.90491 -77.66959 3024 ft 239 kts 252°
2026-05-08 22:58 38.90004 -77.69052 3378 ft 248 kts 255°
2026-05-08 22:59 38.89559 -77.71207 4091 ft 253 kts 251°
2026-05-08 22:59 38.89130 -77.73402 4877 ft 254 kts 262°
2026-05-08 22:59 38.88929 -77.75683 5567 ft 260 kts 266°
2026-05-08 22:59 38.88796 -77.77996 6420 ft 259 kts 261°
2026-05-08 23:00 38.88506 -77.80281 7219 ft 261 kts 262°
2026-05-08 23:00 38.88278 -77.82600 8020 ft 261 kts 263°
2026-05-08 23:00 38.88041 -77.84912 8888 ft 262 kts 263°
2026-05-08 23:00 38.87843 -77.87247 9608 ft 263 kts 264°
2026-05-08 23:01 38.87607 -77.89586 9952 ft 266 kts 263°
2026-05-08 23:01 38.87383 -77.91971 10156 ft 278 kts 270°
2026-05-08 23:01 38.87759 -77.94501 10351 ft 301 kts 288°
2026-05-08 23:01 38.88531 -77.97120 10485 ft 325 kts 290°
2026-05-08 23:02 38.89399 -77.99891 10723 ft 342 kts 291°
2026-05-08 23:02 38.90300 -78.02758 11324 ft 347 kts 291°
2026-05-08 23:02 38.91198 -78.05637 12085 ft 348 kts 291°
2026-05-08 23:02 38.92090 -78.08526 12848 ft 349 kts 291°
2026-05-08 23:03 38.93000 -78.11423 13633 ft 350 kts 292°
2026-05-08 23:03 38.93808 -78.14385 14356 ft 351 kts 290°
2026-05-08 23:03 38.94682 -78.17271 15112 ft 351 kts 292°
2026-05-08 23:03 38.95598 -78.20179 15908 ft 351 kts 291°
2026-05-08 23:04 38.96257 -78.23185 16635 ft 352 kts 277°
2026-05-08 23:04 38.96444 -78.26330 17405 ft 353 kts 275°
2026-05-08 23:04 38.96622 -78.29477 18143 ft 354 kts 276°
2026-05-08 23:04 38.96809 -78.32633 18737 ft 355 kts 276°
2026-05-08 23:05 38.97002 -78.35803 19319 ft 357 kts 276°
2026-05-08 23:05 38.97200 -78.38987 19922 ft 358 kts 275°
2026-05-08 23:05 38.97401 -78.42178 20501 ft 359 kts 275°
2026-05-08 23:05 38.97604 -78.45385 21041 ft 361 kts 275°
2026-05-08 23:06 38.97808 -78.48613 21571 ft 363 kts 275°
2026-05-08 23:06 38.98013 -78.51865 22066 ft 365 kts 275°
2026-05-08 23:06 38.98219 -78.55134 22588 ft 367 kts 275°
2026-05-08 23:06 38.98423 -78.58410 23106 ft 369 kts 275°
2026-05-08 23:07 38.98628 -78.61704 23605 ft 371 kts 275°
2026-05-08 23:07 38.98831 -78.64979 24034 ft 373 kts 275°
2026-05-08 23:07 38.99036 -78.68303 24475 ft 373 kts 275°
2026-05-08 23:07 38.99240 -78.71634 24911 ft 374 kts 275°
2026-05-08 23:08 38.99444 -78.74979 25290 ft 375 kts 275°
2026-05-08 23:08 38.99647 -78.78320 25789 ft 373 kts 275°
2026-05-08 23:08 38.99846 -78.81613 26467 ft 366 kts 275°
2026-05-08 23:08 39.00042 -78.84859 27107 ft 362 kts 275°
2026-05-08 23:09 39.00235 -78.88080 27609 ft 361 kts 275°
2026-05-08 23:09 39.00423 -78.91295 28049 ft 360 kts 275°
2026-05-08 23:09 39.00613 -78.94487 28713 ft 355 kts 275°
2026-05-08 23:09 39.00800 -78.97623 29440 ft 349 kts 274°
2026-05-08 23:10 39.00985 -79.00723 29934 ft 349 kts 274°
2026-05-08 23:10 39.01169 -79.03860 29933 ft 353 kts 274°
2026-05-08 23:10 39.01536 -79.10145 29945 ft 349 kts 274°
2026-05-08 23:11 39.01894 -79.16361 29954 ft 349 kts 274°
2026-05-08 23:11 39.02281 -79.22586 29951 ft 349 kts 275°
2026-05-08 23:12 39.02692 -79.28769 29955 ft 350 kts 275°
2026-05-08 23:12 39.03104 -79.35025 29965 ft 350 kts 275°
2026-05-08 23:13 39.03508 -79.41263 29981 ft 350 kts 275°
2026-05-08 23:13 39.03910 -79.47528 29970 ft 351 kts 274°
2026-05-08 23:14 39.04306 -79.53772 29971 ft 351 kts 274°
2026-05-08 23:14 39.04697 -79.59973 29953 ft 350 kts 274°
2026-05-08 23:15 39.05084 -79.66195 29981 ft 349 kts 274°
2026-05-08 23:15 39.05469 -79.72452 29963 ft 351 kts 274°
2026-05-08 23:16 39.05854 -79.78725 29962 ft 352 kts 274°
2026-05-08 23:16 39.06235 -79.84984 29957 ft 353 kts 274°
2026-05-08 23:17 39.06616 -79.91318 29952 ft 353 kts 274°
2026-05-08 23:17 39.06988 -79.97555 29962 ft 351 kts 274°
2026-05-08 23:18 39.07357 -80.03812 29953 ft 350 kts 274°
2026-05-08 23:18 39.07723 -80.10067 29945 ft 350 kts 274°
2026-05-08 23:19 39.08086 -80.16315 29943 ft 350 kts 274°
2026-05-08 23:19 39.08446 -80.22560 29937 ft 350 kts 274°
2026-05-08 23:20 39.08802 -80.28810 29935 ft 350 kts 274°
2026-05-08 23:20 39.09146 -80.35041 29931 ft 351 kts 274°
2026-05-08 23:21 39.09483 -80.41308 29934 ft 351 kts 274°
2026-05-08 23:21 39.09818 -80.47592 29937 ft 352 kts 274°
2026-05-08 23:22 39.10152 -80.53885 29919 ft 352 kts 274°
2026-05-08 23:22 39.10482 -80.60187 29936 ft 352 kts 273°
2026-05-08 23:23 39.10807 -80.66448 29925 ft 353 kts 273°
2026-05-08 23:23 39.11131 -80.72747 29919 ft 352 kts 273°
2026-05-08 23:24 39.11449 -80.79023 29926 ft 351 kts 273°
2026-05-08 23:24 39.11765 -80.85297 29927 ft 350 kts 273°
2026-05-08 23:25 39.12076 -80.91548 29925 ft 350 kts 273°
2026-05-08 23:25 39.12385 -80.97815 29928 ft 351 kts 273°
2026-05-08 23:26 39.12691 -81.04101 29926 ft 352 kts 273°
2026-05-08 23:26 39.12845 -81.07254 29755 ft 355 kts 274°
2026-05-08 23:26 39.13249 -81.10384 29484 ft 356 kts 283°
2026-05-08 23:27 39.14091 -81.13395 29254 ft 358 kts 287°
2026-05-08 23:27 39.15010 -81.16398 29006 ft 361 kts 288°
2026-05-08 23:27 39.15946 -81.19410 28753 ft 362 kts 288°
2026-05-08 23:27 39.16882 -81.22432 28507 ft 364 kts 288°
2026-05-08 23:28 39.17802 -81.25423 28266 ft 364 kts 288°
2026-05-08 23:28 39.18732 -81.28464 28039 ft 365 kts 288°
2026-05-08 23:28 39.19658 -81.31513 27792 ft 366 kts 288°
2026-05-08 23:28 39.20586 -81.34583 27572 ft 366 kts 288°
2026-05-08 23:29 39.21494 -81.37585 27360 ft 353 kts 287°
2026-05-08 23:29 39.22385 -81.40540 26640 ft 353 kts 288°
2026-05-08 23:29 39.23289 -81.43557 25386 ft 367 kts 288°
2026-05-08 23:29 39.24222 -81.46682 24293 ft 378 kts 288°
2026-05-08 23:30 39.25170 -81.49851 23658 ft 376 kts 288°
2026-05-08 23:30 39.26111 -81.52990 22819 ft 376 kts 288°
2026-05-08 23:30 39.27033 -81.56070 22186 ft 371 kts 289°
2026-05-08 23:30 39.27957 -81.59160 21682 ft 365 kts 288°
2026-05-08 23:31 39.28864 -81.62197 21141 ft 359 kts 288°
2026-05-08 23:31 39.29750 -81.65169 20637 ft 354 kts 289°
2026-05-08 23:31 39.30630 -81.68125 20137 ft 349 kts 289°
2026-05-08 23:31 39.31496 -81.71040 19646 ft 345 kts 289°
2026-05-08 23:32 39.32349 -81.73914 19162 ft 341 kts 289°
2026-05-08 23:32 39.33192 -81.76756 18695 ft 338 kts 289°
2026-05-08 23:32 39.34029 -81.79582 18235 ft 335 kts 289°
2026-05-08 23:32 39.34857 -81.82380 17700 ft 332 kts 289°
2026-05-08 23:33 39.35672 -81.85138 17294 ft 325 kts 289°
2026-05-08 23:33 39.36475 -81.87856 16840 ft 321 kts 289°
2026-05-08 23:33 39.37265 -81.90533 16394 ft 317 kts 289°
2026-05-08 23:33 39.38046 -81.93183 15955 ft 313 kts 289°
2026-05-08 23:34 39.38817 -81.95800 15524 ft 310 kts 289°
2026-05-08 23:34 39.39580 -81.98395 15095 ft 307 kts 289°
2026-05-08 23:34 39.40325 -82.00930 14686 ft 304 kts 289°
2026-05-08 23:34 39.41072 -82.03474 14253 ft 302 kts 289°
2026-05-08 23:35 39.41813 -82.06001 13849 ft 299 kts 289°
2026-05-08 23:35 39.42548 -82.08507 13408 ft 297 kts 289°
2026-05-08 23:35 39.43275 -82.10994 12965 ft 295 kts 289°
2026-05-08 23:35 39.44000 -82.13471 12543 ft 293 kts 289°
2026-05-08 23:36 39.44718 -82.15928 12128 ft 291 kts 289°
2026-05-08 23:36 39.45433 -82.18377 11720 ft 290 kts 289°
2026-05-08 23:36 39.46143 -82.20810 11312 ft 288 kts 288°
2026-05-08 23:36 39.46848 -82.23230 10926 ft 287 kts 288°
2026-05-08 23:37 39.47551 -82.25646 10531 ft 286 kts 288°
2026-05-08 23:37 39.48244 -82.28025 10374 ft 278 kts 288°
2026-05-08 23:37 39.48922 -82.30356 10251 ft 275 kts 288°
2026-05-08 23:37 39.49593 -82.32667 10127 ft 274 kts 288°
2026-05-08 23:38 39.50080 -82.34186 10056 ft 278 kts 295°
2026-05-08 23:38 39.51315 -82.36101 10013 ft 278 kts 315°
2026-05-08 23:38 39.52849 -82.37613 10005 ft 275 kts 319°
2026-05-08 23:38 39.54402 -82.39053 9999 ft 276 kts 320°
2026-05-08 23:39 39.55975 -82.40506 10023 ft 279 kts 320°
2026-05-08 23:39 39.57575 -82.41978 10019 ft 285 kts 319°
2026-05-08 23:39 39.59172 -82.43473 9936 ft 281 kts 317°
2026-05-08 23:39 39.60776 -82.44928 9648 ft 280 kts 320°
2026-05-08 23:40 39.62350 -82.46410 9111 ft 279 kts 318°
2026-05-08 23:40 39.63909 -82.47918 8590 ft 279 kts 318°
2026-05-08 23:40 39.65464 -82.49411 8138 ft 277 kts 319°
2026-05-08 23:40 39.66998 -82.50870 7848 ft 271 kts 318°
2026-05-08 23:41 39.68506 -82.52262 7663 ft 267 kts 315°
2026-05-08 23:41 39.70037 -82.53657 7336 ft 275 kts 324°
2026-05-08 23:41 39.71756 -82.54734 7127 ft 268 kts 314°
2026-05-08 23:41 39.73153 -82.56309 6959 ft 267 kts 308°
2026-05-08 23:42 39.74613 -82.57843 6732 ft 276 kts 319°
2026-05-08 23:42 39.76186 -82.59276 6640 ft 276 kts 321°
2026-05-08 23:42 39.77791 -82.60673 6427 ft 277 kts 321°
2026-05-08 23:42 39.79366 -82.62057 6207 ft 269 kts 320°
2026-05-08 23:43 39.80911 -82.63367 5990 ft 262 kts 327°
2026-05-08 23:43 39.82677 -82.63942 5805 ft 263 kts 350°
2026-05-08 23:43 39.84475 -82.64099 5586 ft 257 kts 349°
2026-05-08 23:43 39.86233 -82.64399 5316 ft 252 kts 343°
2026-05-08 23:44 39.87929 -82.64824 4908 ft 249 kts 343°
2026-05-08 23:44 39.89633 -82.65267 4494 ft 244 kts 342°
2026-05-08 23:44 39.91284 -82.65701 4080 ft 240 kts 343°
2026-05-08 23:44 39.92886 -82.66130 3673 ft 236 kts 343°
2026-05-08 23:45 39.94488 -82.66570 3279 ft 235 kts 342°
2026-05-08 23:45 39.95947 -82.67398 2853 ft 226 kts 315°
2026-05-08 23:45 39.96957 -82.68902 2560 ft 216 kts 303°
2026-05-08 23:45 39.97842 -82.70388 2501 ft 198 kts 304°
2026-05-08 23:46 39.98285 -82.71860 2474 ft 176 kts 264°
2026-05-08 23:46 39.98172 -82.72569 2510 ft 178 kts 252°
2026-05-08 23:46 39.97920 -82.74165 2487 ft 183 kts 276°
2026-05-08 23:46 39.98476 -82.75653 2512 ft 186 kts 303°
2026-05-08 23:47 39.99056 -82.77143 2320 ft 184 kts 273°
2026-05-08 23:47 39.98783 -82.78719 2204 ft 176 kts 254°
2026-05-08 23:47 39.98691 -82.80301 1999 ft 182 kts 278°
2026-05-08 23:47 39.98902 -82.81910 1713 ft 174 kts 273°
2026-05-08 23:48 39.98954 -82.83416 1539 ft 155 kts 270°
2026-05-08 23:48 39.99007 -82.84759 1288 ft 142 kts 271°
2026-05-08 23:48 39.99082 -82.86024 1059 ft 139 kts 274°
2026-05-08 23:48 39.99160 -82.87264 878 ft 135 kts 273°
2026-05-08 23:49 39.99223 -82.88408 824 ft 108 kts 273°
2026-05-08 23:49 39.99266 -82.89189 824 ft 64 kts 274°
2026-05-08 23:49 39.99295 -82.89636 824 ft 39 kts 274°
2026-05-08 23:49 39.99330 -82.89964 823 ft 34 kts 285°
2026-05-08 23:50 39.99411 -82.90177 823 ft 18 kts 305°
2026-05-08 23:50 39.99497 -82.90178 823 ft 17 kts 82°
2026-05-08 23:50 39.99494 -82.90037 824 ft 15 kts 92°
2026-05-08 23:50 39.99486 -82.89904 824 ft 14 kts 94°
2026-05-08 23:51 39.99478 -82.89778 824 ft 14 kts 94°
2026-05-08 23:51 39.99472 -82.89657 824 ft 13 kts 95°
2026-05-08 23:51 39.99465 -82.89540 824 ft 13 kts 94°
2026-05-08 23:51 39.99457 -82.89417 824 ft 15 kts 95°
2026-05-08 23:52 39.99448 -82.89254 824 ft 21 kts 94°
2026-05-08 23:52 39.99437 -82.89045 821 ft 25 kts 94°
2026-05-08 23:52 39.99424 -82.88814 824 ft 25 kts 94°
2026-05-08 23:52 39.99414 -82.88636 824 ft 16 kts 94°
2026-05-08 23:53 39.99406 -82.88492 824 ft 16 kts 94°
2026-05-08 23:53 39.99401 -82.88375 824 ft 9 kts 89°
2026-05-08 23:53 39.99448 -82.88327 824 ft 9 kts
2026-05-08 23:53 39.99512 -82.88319 822 ft 9 kts
2026-05-08 23:54 39.99576 -82.88316 824 ft 10 kts
2026-05-08 23:54 39.99616 -82.88258 824 ft 10 kts 89°
2026-05-08 23:54 39.99613 -82.88163 824 ft 10 kts 96°
2026-05-08 23:55 39.99599 -82.87983 824 ft 10 kts 95°
2026-05-08 23:55 39.99632 -82.87916 821 ft 10 kts 17°
2026-05-08 23:55 39.99699 -82.87909 824 ft 9 kts
2026-05-08 23:55 39.99768 -82.87903 824 ft 11 kts
2026-05-08 23:56 39.99845 -82.87898 824 ft 10 kts 354°
2026-05-08 23:56 39.99872 -82.87947 824 ft 6 kts 269°
2026-05-08 23:56 39.99872 -82.87986 824 ft 1 kts 270°
2026-05-08 23:56 39.99872 -82.87988 824 ft 0 kts 270°